Total_Precipitation_Accumulation
3.13 3.36 3.95 3.80 3.45 3.29 3.03 3.14 3.35 3.31 3.35 3.40 3.40 3.16 3.10 3.16 3.20 3.46 3.69 3.91 4.18 4.45 4.50 4.29 4.25 4.17 3.94 3.82 3.87 3.63 3.50 3.58 3.56 3.50 3.67 3.69 3.77 3.85 4.11 4.22 4.27 3.31 2.98
2.42 2.73 3.50 3.43 3.24 3.32 3.29 3.32 3.23 3.16 3.27 3.45 3.19 2.87 2.85 2.96 3.05 3.40 3.80 4.05 4.51 4.79 4.47 4.13 4.07 4.02 4.00 3.91 3.77 3.59 3.60 3.87 4.00 4.20 4.38 4.18 4.39 4.39 4.36 4.10 4.16 3.42 3.18
2.05 2.24 2.74 3.28 3.26 3.46 3.54 3.21 3.05 3.06 3.15 3.19 2.91 2.82 2.95 3.11 3.16 3.31 3.50 3.80 4.46 4.60 4.30 4.05 3.95 3.98 4.00 4.15 3.93 3.69 3.81 4.07 4.39 4.85 5.06 4.02 3.74 4.30 4.48 4.17 3.78 3.38 3.09
1.85 1.88 2.11 2.96 3.41 3.67 3.44 3.19 2.99 3.00 3.12 2.93 2.84 2.81 2.93 3.26 3.48 3.72 3.72 3.83 4.05 4.08 3.95 3.93 3.89 4.07 4.07 3.89 3.81 3.93 4.12 4.05 4.39 4.79 4.56 3.38 2.82 3.33 3.78 3.83 3.52 3.31 3.18
1.70 1.82 2.27 3.15 3.38 3.34 3.26 3.08 3.02 3.09 3.04 2.85 2.66 2.61 2.75 3.01 3.30 3.49 3.70 3.92 3.80 3.89 3.89 3.92 3.84 4.06 4.07 3.81 3.88 4.03 4.13 4.09 4.33 4.11 3.43 3.47 3.38 3.27 3.18 3.48 3.74 3.77 3.53
1.72 1.95 2.59 3.17 3.09 3.19 3.17 3.12 3.06 2.96 2.86 2.69 2.54 2.53 2.71 2.83 2.95 3.03 3.31 3.52 3.60 3.66 3.80 3.95 3.96 4.09 4.09 4.11 4.19 4.06 3.87 3.77 3.67 2.82 2.66 3.06 3.04 3.12 3.16 3.55 3.82 3.94 3.79
1.76 2.18 2.71 3.11 3.09 3.22 3.06 3.03 2.89 2.69 2.61 2.55 2.45 2.33 2.54 2.67 2.82 2.96 3.06 3.31 3.62 3.75 3.78 3.91 4.07 4.12 4.33 4.82 4.73 4.21 3.80 3.59 3.03 2.44 2.43 2.80 2.77 2.80 3.30 3.66 3.74 3.67 3.62
2.04 2.35 2.93 3.40 3.45 3.49 3.27 3.00 2.86 2.64 2.50 2.50 2.42 2.38 2.35 2.55 2.71 2.75 2.91 3.17 3.57 3.93 3.87 3.84 3.97 3.99 4.59 5.02 4.53 3.89 3.61 3.10 2.44 2.33 2.33 2.54 2.43 2.60 3.24 3.61 3.77 3.89 3.76
2.31 2.50 2.87 3.28 3.38 3.38 3.21 3.10 2.88 2.74 2.64 2.63 2.58 2.43 2.49 2.51 2.46 2.46 2.66 3.01 3.26 3.70 3.66 3.71 3.87 4.19 4.60 4.44 3.96 3.67 3.52 3.16 2.52 2.49 2.24 2.36 2.32 2.67 3.09 3.30 3.42 3.65 3.65
2.68 2.70 2.61 2.69 2.99 2.88 2.77 2.93 2.88 2.86 2.86 2.83 2.81 2.75 2.93 2.85 2.57 2.58 2.60 2.86 3.08 3.32 3.27 3.36 3.71 4.08 4.03 3.95 3.72 3.63 3.54 3.17 2.56 2.48 2.58 2.30 2.43 2.90 3.21 3.20 3.38 3.59 3.35
2.98 2.70 2.41 2.38 2.67 2.67 2.47 2.56 3.07 3.22 3.15 3.12 3.26 3.37 3.67 3.75 3.17 3.16 2.78 2.99 3.31 3.31 3.26 3.52 3.77 4.10 4.12 3.97 3.96 3.95 3.62 2.98 2.89 2.82 2.99 2.50 2.54 3.11 3.46 3.48 3.44 3.24 3.12
2.95 2.93 2.68 2.43 2.38 2.46 2.28 2.52 3.33 3.26 3.34 3.55 3.84 3.75 3.98 3.96 3.75 2.96 3.01 3.56 3.69 3.73 3.89 4.29 4.66 4.43 4.13 4.01 4.31 4.55 3.61 3.13 2.99 2.83 2.88 2.60 2.78 3.39 3.82 3.84 3.66 3.15 3.03
2.89 2.74 2.86 2.71 2.52 2.51 2.74 2.67 3.00 3.35 3.55 3.67 3.62 3.58 3.74 3.35 3.21 3.18 3.74 4.22 4.02 3.87 4.04 4.48 4.85 4.00 4.01 4.71 4.80 4.41 3.91 3.64 3.33 3.14 3.13 2.97 3.26 3.94 4.39 4.41 4.16 3.49 3.18
3.12 2.99 3.27 3.19 3.10 3.13 2.95 2.97 2.87 2.88 2.92 3.00 3.23 3.07 3.07 3.25 3.31 3.59 4.06 4.12 4.05 4.14 4.53 4.42 4.60 4.46 4.62 4.63 4.50 4.47 4.38 4.09 3.80 3.71 4.00 3.72 3.82 4.20 4.78 4.80 4.35 3.94 3.71
3.48 3.54 3.69 3.68 3.81 3.71 3.53 3.38 2.82 2.90 2.77 2.69 2.80 2.75 2.84 3.21 3.49 3.95 3.91 3.95 3.60 3.75 4.17 4.56 4.53 4.78 5.07 4.89 4.29 4.03 4.18 4.07 3.77 3.51 3.70 3.89 4.01 4.08 4.59 4.94 4.59 4.27 4.13
3.94 4.22 4.23 4.21 4.22 4.07 3.72 3.51 3.21 2.85 2.89 2.62 2.66 2.73 3.17 3.49 3.69 4.07 4.03 3.95 3.60 3.62 3.99 4.39 4.44 4.77 4.90 4.91 4.28 3.90 3.92 3.85 3.51 3.21 3.26 3.74 3.88 3.87 4.18 4.69 4.81 4.71 4.51
4.55 4.78 5.06 4.94 4.59 4.68 4.33 3.57 3.03 2.76 2.59 2.73 2.93 3.00 3.32 3.52 3.94 4.27 4.20 3.80 3.59 3.72 3.97 3.99 4.13 4.60 4.47 4.37 4.25 4.09 3.96 3.73 3.38 3.35 3.28 3.50 3.38 3.60 4.00 4.22 4.54 4.88 4.97
5.03 5.48 5.74 5.29 5.23 5.30 4.99 4.39 3.72 3.36 3.23 3.31 3.38 3.27 3.08 3.33 3.57 3.99 3.68 3.25 3.36 3.63 3.97 4.02 3.89 4.26 4.43 4.40 4.43 4.22 3.96 3.77 3.34 3.25 3.25 3.23 3.26 3.06 3.47 3.92 4.35 4.68 5.11
5.27 6.01 6.44 6.65 6.21 5.90 5.33 4.89 4.33 3.99 3.84 3.59 3.42 3.17 2.92 2.74 2.67 3.06 3.04 2.95 2.94 3.35 3.62 3.19 3.37 3.71 3.94 4.14 3.76 3.67 3.30 3.13 3.07 2.85 2.79 2.70 2.94 3.14 3.35 3.48 3.94 4.29 4.98
5.37 6.12 6.51 6.83 6.36 5.68 5.37 5.34 4.99 4.42 3.96 3.54 3.26 3.12 2.75 2.68 2.48 2.79 2.78 2.61 2.58 2.95 3.24 3.42 3.62 3.62 3.45 3.53 3.00 3.01 3.00 2.78 2.81 2.77 2.56 2.54 2.68 2.64 2.98 3.37 3.76 3.62 4.23
5.75 6.43 6.58 6.41 5.78 5.27 4.87 4.63 4.37 4.17 3.87 3.33 2.95 2.76 2.67 2.53 2.56 2.93 2.72 2.82 2.67 2.80 2.98 3.09 3.29 3.31 3.07 3.22 3.55 3.41 3.07 2.77 2.74 2.66 2.57 2.66 2.71 2.81 3.03 3.49 3.75 3.84 3.75
5.28 5.64 5.78 5.46 4.73 4.27 4.06 4.06 3.80 3.59 3.26 3.06 2.83 2.87 2.50 2.36 2.47 2.45 2.78 2.64 2.59 2.89 2.92 3.08 3.28 3.19 2.84 3.01 3.54 3.81 3.63 3.64 3.06 2.32 2.49 2.62 2.71 3.00 3.02 2.97 3.25 3.84 3.93
4.75 4.54 4.25 4.12 3.78 3.73 3.74 3.58 3.35 3.30 3.05 2.91 2.73 2.70 2.38 2.10 2.13 2.30 2.41 2.38 2.56 2.54 2.83 3.04 3.10 3.30 3.28 3.02 2.99 3.51 3.58 3.62 3.33 2.69 2.32 2.44 2.78 3.14 3.15 3.09 3.03 3.39 3.72
3.78 3.52 3.33 3.30 3.28 3.28 3.20 3.12 2.85 2.74 2.72 2.58 2.52 2.60 2.49 2.17 2.11 2.19 2.29 2.47 2.58 2.46 2.86 2.59 2.77 3.22 3.44 3.12 3.08 2.96 3.03 3.25 3.34 3.21 2.78 2.46 2.61 2.78 2.99 2.95 2.97 3.29 3.57
2.50 2.69 2.77 2.93 3.13 3.06 3.02 3.06 3.03 2.72 2.67 2.64 2.64 2.81 2.74 2.49 2.24 2.07 2.34 2.68 2.78 2.63 2.69 2.77 3.15 3.13 3.17 3.14 3.09 3.01 3.11 3.18 2.98 3.04 3.04 2.83 2.61 2.27 2.39 2.71 2.97 3.16 3.34
1.82 2.07 2.30 2.45 2.64 2.83 2.88 2.75 2.69 2.66 2.73 2.79 2.79 2.68 2.50 2.41 2.32 2.20 2.39 2.70 2.73 2.82 2.87 2.85 2.97 3.05 3.18 3.27 3.15 2.92 2.98 3.05 3.08 3.21 2.92 2.86 2.86 2.46 2.49 2.73 2.83 3.04 3.08